Meteo Giornale » Osservazioni meteo Stati Uniti (USA) » Mason City
ore: 15:53 - Osservazioni Meteo Mason City
Lat. 43° 9' N Lon. 93° 19' W Alt. 370 metri s.l.m.
29 °C
Sereno
Temp. 24 Ore
19 °C
29 °C
Ovest
13 Km/h
Dew point 23 °C
Umidità 70 %
Visibilità 10 Km
Il sole sorge alle ore 06:36
Il sole tramonta alle ore 19:50
| Data e Ora | Cielo e Fenomeni | T °C | DP °C | Um. % | Pres. hPa | Vis. km | Vento km/h | |
|---|---|---|---|---|---|---|---|---|
| Oggi h: 15:53 | Sereno | 29 | 23 | 70 | 1012 | 10 | O 13 | |
| Oggi h: 14:53 | Sereno | 29 | 24 | 74 | 1012 | 10 | O 13 | |
| Oggi h: 13:53 | Poco Nuvoloso | 29 | 23 | 70 | 1011 | 10 | O/NO 9.3 | |
| Oggi h: 12:53 | Poco Nuvoloso | 28 | 22 | 69 | 1011 | 10 | N 0 | |
| Oggi h: 11:53 | Sereno | 28 | 23 | 74 | 1012 | 10 | O/NO 13 | |
| Oggi h: 10:53 | Sereno | 29 | 22 | 66 | 1011 | 10 | O 9.3 | |
| Oggi h: 09:53 | Sereno | 28 | 22 | 69 | 1011 | 10 | O 16.7 | |
| Oggi h: 08:53 | Sereno | 25 | 21 | 78 | 1011 | 10 | O/SO 9.3 | |
| Oggi h: 07:53 | Sereno | 22 | 21 | 94 | 1010 | 10 | S 7.4 | |
| Oggi h: 06:53 | Sereno | 20 | 19 | 93 | 1009 | 10 | S 7.4 | |
| Oggi h: 05:53 | Sereno | 19 | 19 | 100 | 1009 | 10 | S/SO 9.3 | |
| Oggi h: 04:53 | Sereno | 19 | 19 | 100 | 1009 | 14 | S 7.4 | |
| Oggi h: 03:53 | Sereno | 20 | 20 | 100 | 1009 | 11 | N 5.5 | |
| Oggi h: 03:24 | Foschia | 21 | 20 | 94 | 1009 | 8 | S 7.4 | |
| Oggi h: 03:14 | Foschia | 21 | 20 | 94 | 1009 | 3 | N 0 | |
| Oggi h: 02:53 | Foschia | 21 | 21 | 100 | 1009 | 10 | S 7.4 | |
| Oggi h: 01:53 | Sereno | 21 | 21 | 100 | 1009 | 11 | S 11.1 | |
| Oggi h: 00:53 | Sereno | 22 | 21 | 94 | 1009 | 14 | N 5.5 | |
| Ieri h: 23:53 | Sereno | 22 | 21 | 94 | 1010 | 10 | S/SE 13 | |
| Ieri h: 22:53 | Sereno | 22 | 21 | 94 | 1009 | 10 | S/SE 13 | |
| Ieri h: 21:53 | Sereno | 22 | 21 | 94 | 1010 | 10 | S/SE 14.8 | |
| Ieri h: 20:53 | Sereno | 22 | 21 | 94 | 1010 | 10 | S/SE 16.7 | |
| Ieri h: 19:53 | Sereno | 23 | 21 | 88 | 1010 | 10 | S/SE 18.5 | |
| Ieri h: 18:53 | Sereno | 23 | 22 | 94 | 1010 | 10 | S/SE 18.5 | |
| Ieri h: 17:53 | Sereno | 24 | 21 | 83 | 1009 | 10 | S/SE 18.5 | |
| Ieri h: 16:53 | Pioggia | 25 | 21 | 78 | 1009 | 10 | S 24 | |



